Dewpoint
39 38 35 32 34 33 32 30 31 31 25 25 25 28 30 30 30 28 27 29 27 27 27 28 29 30 31 31 32 32 32 33 34 34 34 35 36 36
35 36 35 34 33 33 31 30 30 29 27 26 25 26 28 24 27 26 25 26 27 28 25 26 29 30 30 30 30 30 31 31 32 32 32 33 34 35
36 35 35 35 33 32 31 31 30 29 26 25 25 26 27 27 25 25 24 23 20 27 27 25 27 28 27 28 27 28 29 29 30 30 31 32 34 35
34 35 34 30 33 33 31 32 30 29 26 25 25 24 25 25 26 25 20 14 17 22 25 25 26 25 26 26 27 28 28 28 29 30 30 31 31 33
34 34 33 33 32 31 31 30 28 25 26 25 23 24 23 23 23 22 21 19 14 22 25 26 23 23 25 26 27 28 28 28 29 30 30 31 31 31
34 34 33 32 32 31 29 29 27 27 26 25 23 22 21 22 21 18 17 14 14 11 20 24 24 23 25 26 26 26 27 28 29 30 31 32 32 31
34 32 34 34 35 33 26 27 27 26 24 22 21 20 20 20 19 19 16 14 16 18 18 18 19 19 20 25 25 26 26 27 28 29 30 32 32 32
32 31 31 34 33 33 33 33 30 28 25 23 22 22 23 23 22 19 16 13 14 18 19 19 19 19 17 20 28 26 26 28 29 30 30 31 33 34
32 31 29 26 31 30 31 32 32 32 29 28 28 26 28 26 23 20 17 15 16 18 19 18 20 20 20 17 28 28 28 29 30 31 30 32 33 34
31 32 31 31 31 31 31 29 28 28 28 27 27 26 26 27 22 20 20 21 21 19 19 21 21 21 22 22 27 29 28 29 29 30 30 32 32 32
29 30 29 29 30 34 32 31 29 28 28 30 30 30 27 24 24 24 23 22 23 17 18 20 21 21 21 23 25 29 29 31 31 31 31 31 32 32
32 30 31 31 30 32 34 33 33 31 27 29 27 26 27 26 26 24 22 21 21 19 17 17 16 18 20 22 26 25 28 28 30 31 32 32 31 32
26 26 28 30 32 32 32 35 34 32 31 31 29 24 23 22 20 22 22 22 21 18 19 20 19 18 19 19 21 22 26 31 32 32 32 32 32 32
27 29 29 30 31 31 32 33 33 33 35 35 28 26 26 25 21 20 22 23 22 20 21 25 23 20 20 20 18 20 28 31 32 32 33 32 32 34
27 28 28 29 30 30 30 32 32 32 32 32 30 27 26 26 24 24 23 22 22 22 19 22 23 21 21 20 19 20 23 25 29 33 32 32 33 32
25 29 30 28 28 29 31 32 33 33 33 32 30 28 27 29 25 24 24 23 23 23 21 22 22 21 21 19 19 19 21 26 28 30 31 33 34 32
25 29 31 29 29 30 31 32 33 33 32 33 32 32 31 28 27 26 25 22 22 20 19 19 20 21 21 20 21 20 24 26 29 29 28 29 29 31
25 26 27 31 33 29 30 31 33 32 32 33 32 30 30 29 26 27 25 24 22 20 19 19 18 20 19 22 25 22 26 28 29 27 28 28 27 29
21 21 24 25 27 27 31 32 32 32 30 29 30 31 31 30 29 27 27 23 22 20 19 19 19 19 15 20 25 25 24 23 25 27 26 27 27 29
17 18 19 20 22 22 24 31 32 33 31 28 30 31 32 29 29 26 26 24 22 19 17 16 17 17 16 20 22 26 26 27 27 25 25 27 29 30
14 14 16 16 17 20 23 26 29 33 33 32 31 30 31 29 28 26 24 24 22 18 15 15 17 18 14 21 23 27 29 27 27 26 25 25 26 29
14 13 13 15 17 18 21 22 25 27 32 31 31 31 31 30 28 26 25 25 20 20 17 16 16 14 15 17 18 24 25 27 29 25 23 25 26 23
13 13 14 14 15 16 16 18 19 23 25 30 30 30 31 29 27 28 25 22 21 19 17 16 15 13 13 13 17 19 23 24 24 27 29 23 23 25
Lifted_Index
11 11 11 11 11 11 11 11 11 10 10 9 9 9 9 8 8 8 8 9 9 10 10 10 10 9 9 8 8 7 7 7 7 7 7 7 7 7
11 11 11 11 11 11 11 11 11 10 9 9 8 8 8 7 7 8 8 8 9 9 10 10 9 9 8 8 8 8 8 8 7 7 7 7 7 7
11 11 11 11 11 11 11 10 10 9 9 8 8 7 7 7 7 7 8 8 9 9 9 9 9 9 8 8 8 8 9 9 9 8 8 8 8 7
11 11 11 11 11 11 10 10 10 9 9 8 7 6 6 6 6 7 8 8 8 8 9 9 9 9 9 9 9 9 9 9 9 9 9 9 9 8
11 11 11 11 11 11 10 10 9 9 8 7 6 6 5 6 6 7 8 8 8 8 8 8 8 8 9 9 9 10 10 10 10 10 9 9 9 9
11 11 11 11 11 10 10 10 9 8 7 6 6 5 5 6 6 7 8 8 7 7 7 7 8 8 8 9 9 10 10 10 10 9 9 9 8 8
11 11 11 11 11 10 10 10 9 8 7 6 5 5 6 6 6 7 7 8 7 7 6 6 7 7 7 8 8 9 9 9 9 9 9 8 8 8
11 11 11 10 10 10 10 10 9 7 6 6 5 6 6 6 6 7 7 7 7 6 6 6 6 6 7 7 8 8 9 9 9 9 9 8 8 8
11 11 10 10 10 9 9 9 8 7 6 6 6 6 6 6 6 7 7 7 7 6 6 6 6 6 7 7 7 8 8 8 8 8 8 8 8 8
11 10 10 9 9 8 8 7 7 6 6 6 7 6 6 6 7 7 7 7 7 6 6 6 6 6 7 7 7 7 7 8 8 8 8 8 8 8
11 11 10 9 8 8 7 6 6 6 6 6 7 6 6 7 7 7 7 7 7 6 6 6 6 6 7 7 7 7 7 7 7 7 8 8 8 8
12 11 10 9 8 7 6 6 6 5 5 6 6 6 6 6 7 7 7 7 7 6 6 6 6 7 7 7 7 7 7 6 6 7 7 7 6 6
13 13 11 10 9 8 7 6 6 5 5 5 5 5 5 5 6 7 7 7 7 6 6 7 7 7 7 7 7 7 7 6 6 6 5 5 5 4
14 13 12 10 9 8 7 7 6 5 5 4 4 4 4 4 5 6 6 7 7 7 7 7 7 7 7 7 7 7 7 6 6 5 5 4 3 3
14 13 12 10 10 9 8 7 6 5 5 4 3 3 3 4 5 6 6 6 7 7 7 7 8 8 7 7 7 7 7 6 6 5 4 3 2 2
14 13 11 10 9 8 8 7 6 5 5 4 3 3 3 4 5 5 6 6 7 7 7 7 7 8 7 7 7 7 7 6 5 5 4 3 2 2
14 12 10 9 8 7 6 6 5 5 5 4 3 3 3 4 4 5 6 6 6 6 7 7 7 7 7 7 7 7 6 6 5 4 3 2 2 2
13 12 10 9 7 6 5 5 5 5 4 4 3 3 3 4 4 5 6 6 6 6 6 7 7 7 7 6 6 6 6 6 5 5 4 3 2 2
13 12 10 9 7 6 5 4 4 4 4 4 3 3 4 4 4 5 5 6 6 6 7 7 7 7 6 6 6 6 6 6 6 5 4 3 3 2
13 12 11 10 8 7 6 5 4 4 4 4 4 4 4 4 4 5 5 6 6 7 7 7 7 7 7 6 6 6 6 6 6 5 5 4 3 3
14 13 12 11 9 8 7 6 5 4 4 4 4 4 4 4 4 5 5 6 6 7 7 7 7 7 8 7 6 6 6 6 6 6 5 5 4 3
14 14 13 12 10 9 8 7 5 4 4 4 4 4 4 4 4 5 5 6 6 7 7 7 7 8 8 7 6 6 6 6 6 6 6 6 5 5
14 14 13 12 11 10 9 7 6 4 4 4 4 4 4 4 4 5 5 6 6 7 7 7 8 8 8 7 7 6 6 6 6 6 6 6 6 6